Time,TemperatureF,DewpointF,PressureIn,WindDirection,WindDirectionDegrees,WindSpeedMPH,WindSpeedGustMPH,Humidity,HourlyPrecipIn,Conditions,Clouds,dailyrainin,SoftwareType,DateUTC
2013-08-15 00:01:00,53.0,52.1,30.14,WNW,301,0.0,0.0,97,0.00,,,0.00,WUHU216DAVISVP2,2013-08-15 04:01:00,
2013-08-15 00:06:00,53.1,52.2,30.15,WNW,301,0.0,1.0,97,0.00,,,0.00,WUHU216DAVISVP2,2013-08-15 04:06:00,
2013-08-15 00:11:00,53.1,52.2,30.15,WNW,301,0.0,1.0,97,0.00,,,0.00,WUHU216DAVISVP2,2013-08-15 04:11:00,
2013-08-15 00:16:00,53.1,52.2,30.15,WNW,301,1.0,2.0,97,0.00,,,0.00,WUHU216DAVISVP2,2013-08-15 04:16:00,
2013-08-15 00:21:00,53.1,52.2,30.15,ENE,71,0.0,2.0,97,0.00,,,0.00,WUHU216DAVISVP2,2013-08-15 04:21:00,
2013-08-15 00:26:00,53.1,52.3,30.15,ENE,71,0.0,2.0,97,0.00,,,0.00,WUHU216DAVISVP2,2013-08-15 04:26:00,
2013-08-15 00:31:00,53.0,52.2,30.15,ENE,71,0.0,2.0,97,0.00,,,0.00,WUHU216DAVISVP2,2013-08-15 04:31:00,
2013-08-15 00:36:00,53.0,52.2,30.16,ENE,71,0.0,2.0,97,0.00,,,0.00,WUHU216DAVISVP2,2013-08-15 04:36:00,
2013-08-15 00:41:00,53.1,52.2,30.16,ENE,71,0.0,2.0,97,0.00,,,0.00,WUHU216DAVISVP2,2013-08-15 04:41:00,
2013-08-15 00:46:00,53.2,52.3,30.16,ENE,71,0.0,1.0,97,0.00,,,0.00,WUHU216DAVISVP2,2013-08-15 04:46:00,
2013-08-15 00:51:00,53.2,52.3,30.16,ENE,71,0.0,1.0,97,0.00,,,0.00,WUHU216DAVISVP2,2013-08-15 04:51:00,
2013-08-15 00:56:00,53.3,52.7,30.16,ENE,71,0.0,1.0,98,0.00,,,0.00,WUHU216DAVISVP2,2013-08-15 04:56:00,
2013-08-15 01:01:00,53.3,52.4,30.16,ENE,71,0.0,1.0,97,0.00,,,0.00,WUHU216DAVISVP2,2013-08-15 05:01:00,
2013-08-15 01:06:00,53.1,52.2,30.16,ENE,71,0.0,0.0,97,0.00,,,0.00,WUHU216DAVISVP2,2013-08-15 05:06:00,
2013-08-15 01:11:00,53.1,52.3,30.16,ENE,71,0.0,0.0,97,0.00,,,0.00,WUHU216DAVISVP2,2013-08-15 05:11:00,
2013-08-15 01:16:00,53.1,52.3,30.16,ENE,71,0.0,0.0,97,0.00,,,0.00,WUHU216DAVISVP2,2013-08-15 05:16:00,
2013-08-15 01:21:00,53.1,52.3,30.16,ENE,71,0.0,0.0,97,0.00,,,0.00,WUHU216DAVISVP2,2013-08-15 05:21:00,
2013-08-15 01:26:00,53.2,52.3,30.16,ENE,71,0.0,0.0,97,0.00,,,0.00,WUHU216DAVISVP2,2013-08-15 05:26:00,
2013-08-15 01:31:00,53.2,52.3,30.16,ENE,71,0.0,1.0,97,0.00,,,0.00,WUHU216DAVISVP2,2013-08-15 05:31:00,
2013-08-15 01:36:00,53.2,52.3,30.16,ENE,71,0.0,1.0,97,0.00,,,0.00,WUHU216DAVISVP2,2013-08-15 05:36:00,
2013-08-15 01:41:00,53.2,52.3,30.17,ENE,71,0.0,1.0,97,0.00,,,0.00,WUHU216DAVISVP2,2013-08-15 05:41:00,
2013-08-15 01:46:00,53.2,52.3,30.17,ENE,71,0.0,1.0,97,0.00,,,0.00,WUHU216DAVISVP2,2013-08-15 05:46:00,
2013-08-15 01:51:00,53.1,52.2,30.17,ENE,71,0.0,1.0,97,0.00,,,0.00,WUHU216DAVISVP2,2013-08-15 05:51:00,
2013-08-15 01:56:00,52.9,52.0,30.17,ENE,71,0.0,2.0,97,0.00,,,0.00,WUHU216DAVISVP2,2013-08-15 05:56:00,
2013-08-15 02:01:00,52.8,52.0,30.17,ENE,71,0.0,2.0,97,0.00,,,0.00,WUHU216DAVISVP2,2013-08-15 06:01:00,
2013-08-15 02:06:00,52.6,51.8,30.17,ENE,71,0.0,2.0,97,0.00,,,0.00,WUHU216DAVISVP2,2013-08-15 06:06:00,
2013-08-15 02:11:00,52.6,51.8,30.17,ENE,71,0.0,2.0,97,0.00,,,0.00,WUHU216DAVISVP2,2013-08-15 06:11:00,
2013-08-15 02:16:00,52.6,51.8,30.17,ENE,71,0.0,1.0,97,0.00,,,0.00,WUHU216DAVISVP2,2013-08-15 06:16:00,
2013-08-15 02:21:00,52.5,51.6,30.17,ENE,71,0.0,1.0,97,0.00,,,0.00,WUHU216DAVISVP2,2013-08-15 06:21:00,
2013-08-15 02:26:00,52.5,51.6,30.17,ENE,71,1.0,1.0,97,0.00,,,0.00,WUHU216DAVISVP2,2013-08-15 06:26:00,
2013-08-15 02:31:00,52.4,51.5,30.17,East,82,0.0,3.0,97,0.00,,,0.00,WUHU216DAVISVP2,2013-08-15 06:31:00,
2013-08-15 02:36:00,52.4,51.5,30.16,East,82,0.0,3.0,97,0.00,,,0.00,WUHU216DAVISVP2,2013-08-15 06:36:00,
2013-08-15 02:41:00,52.4,51.5,30.17,East,82,0.0,3.0,97,0.00,,,0.00,WUHU216DAVISVP2,2013-08-15 06:41:00,
2013-08-15 02:46:00,52.4,51.5,30.17,East,82,0.0,3.0,97,0.00,,,0.00,WUHU216DAVISVP2,2013-08-15 06:46:00,
2013-08-15 02:51:00,52.4,51.5,30.17,SE,136,2.0,3.0,97,0.00,,,0.00,WUHU216DAVISVP2,2013-08-15 06:51:00,
2013-08-15 02:56:00,52.4,51.3,30.17,SE,136,0.0,3.0,96,0.00,,,0.00,WUHU216DAVISVP2,2013-08-15 06:56:00,
2013-08-15 03:01:00,52.4,51.6,30.17,SE,136,0.0,3.0,97,0.00,,,0.00,WUHU216DAVISVP2,2013-08-15 07:01:00,
2013-08-15 03:06:00,52.4,51.6,30.17,SE,136,0.0,3.0,97,0.00,,,0.00,WUHU216DAVISVP2,2013-08-15 07:06:00,
2013-08-15 03:11:00,52.5,51.6,30.17,SE,136,0.0,0.0,97,0.00,,,0.00,WUHU216DAVISVP2,2013-08-15 07:11:00,
2013-08-15 03:16:00,52.5,51.6,30.17,SSW,208,2.0,3.0,97,0.00,,,0.00,WUHU216DAVISVP2,2013-08-15 07:16:00,
2013-08-15 03:21:00,52.3,51.2,30.17,SSW,208,0.0,3.0,96,0.00,,,0.00,WUHU216DAVISVP2,2013-08-15 07:21:00,
2013-08-15 03:26:00,52.3,51.2,30.17,SSW,208,0.0,3.0,96,0.00,,,0.00,WUHU216DAVISVP2,2013-08-15 07:26:00,
2013-08-15 03:31:00,65.8,64.9,30.09,WNW,293,3.0,5.0,97,0.03,,,0.60,WUHU216DAVISVP2,2013-08-15 07:31:00,
2013-08-15 03:36:00,65.7,64.5,30.09,WSW,248,1.0,5.0,96,0.03,,,0.60,WUHU216DAVISVP2,2013-08-15 07:36:00,
2013-08-15 03:41:00,65.4,64.2,30.09,NW,315,1.0,5.0,96,0.02,,,0.60,WUHU216DAVISVP2,2013-08-15 07:41:00,
2013-08-15 03:43:00,52.0,51.1,30.17,SE,145,0.0,3.0,97,0.00,,,0.00,WUHU216DAVISVP2,2013-08-15 07:43:00,
2013-08-15 03:46:00,65.4,64.5,30.08,NW,315,1.0,3.0,97,0.02,,,0.60,WUHU216DAVISVP2,2013-08-15 07:46:00,
2013-08-15 03:48:00,51.9,51.0,30.17,SE,145,0.0,3.0,97,0.00,,,0.00,WUHU216DAVISVP2,2013-08-15 07:48:00,
2013-08-15 03:51:00,65.3,64.4,30.08,NW,315,1.0,4.0,97,0.01,,,0.60,WUHU216DAVISVP2,2013-08-15 07:51:00,
2013-08-15 03:53:00,52.0,51.1,30.17,SE,146,0.0,3.0,97,0.00,,,0.00,WUHU216DAVISVP2,2013-08-15 07:53:00,
2013-08-15 03:56:00,65.3,64.4,30.07,North,0,0.0,4.0,97,0.02,,,0.61,WUHU216DAVISVP2,2013-08-15 07:56:00,
2013-08-15 03:58:00,52.0,51.1,30.17,SE,146,0.0,2.0,97,0.00,,,0.00,WUHU216DAVISVP2,2013-08-15 07:58:00,
2013-08-15 04:01:00,65.3,64.4,30.07,NW,315,0.0,2.0,97,0.02,,,0.61,WUHU216DAVISVP2,2013-08-15 08:01:00,
2013-08-15 04:03:00,52.0,51.1,30.17,SE,146,0.0,2.0,97,0.00,,,0.00,WUHU216DAVISVP2,2013-08-15 08:03:00,
2013-08-15 04:06:00,65.2,64.3,30.07,North,0,0.0,1.0,97,0.02,,,0.61,WUHU216DAVISVP2,2013-08-15 08:06:00,
2013-08-15 04:08:00,52.1,51.2,30.17,SE,146,0.0,1.0,97,0.00,,,0.00,WUHU216DAVISVP2,2013-08-15 08:08:00,
2013-08-15 04:11:00,65.2,64.3,30.08,NW,315,1.0,3.0,97,0.02,,,0.61,WUHU216DAVISVP2,2013-08-15 08:11:00,
2013-08-15 04:13:00,52.1,51.2,30.17,SE,146,0.0,2.0,97,0.00,,,0.00,WUHU216DAVISVP2,2013-08-15 08:13:00,
2013-08-15 04:16:00,65.2,64.3,30.09,North,0,0.0,3.0,97,0.01,,,0.61,WUHU216DAVISVP2,2013-08-15 08:16:00,
2013-08-15 04:18:00,52.1,51.3,30.17,SE,146,0.0,2.0,97,0.00,,,0.00,WUHU216DAVISVP2,2013-08-15 08:18:00,
2013-08-15 04:21:00,65.2,64.3,30.09,North,0,0.0,3.0,97,0.02,,,0.62,WUHU216DAVISVP2,2013-08-15 08:21:00,
2013-08-15 04:23:00,52.1,51.3,30.17,SE,146,0.0,2.0,97,0.00,,,0.00,WUHU216DAVISVP2,2013-08-15 08:23:00,
2013-08-15 04:26:00,65.1,64.2,30.09,North,0,0.0,1.0,97,0.02,,,0.62,WUHU216DAVISVP2,2013-08-15 08:26:00,
2013-08-15 04:28:00,52.1,51.3,30.17,SE,146,0.0,2.0,97,0.00,,,0.00,WUHU216DAVISVP2,2013-08-15 08:28:00,
2013-08-15 04:31:00,65.1,64.2,30.09,NW,315,0.0,1.0,97,0.03,,,0.63,WUHU216DAVISVP2,2013-08-15 08:31:00,
2013-08-15 04:33:00,52.2,51.4,30.17,SE,137,1.0,2.0,97,0.00,,,0.00,WUHU216DAVISVP2,2013-08-15 08:33:00,
2013-08-15 04:36:00,65.0,64.1,30.09,NW,315,0.0,1.0,97,0.03,,,0.63,WUHU216DAVISVP2,2013-08-15 08:36:00,
2013-08-15 04:38:00,52.2,51.4,30.17,SE,137,0.0,2.0,97,0.00,,,0.00,WUHU216DAVISVP2,2013-08-15 08:38:00,
2013-08-15 04:41:00,65.1,64.2,30.09,North,0,0.0,2.0,97,0.03,,,0.63,WUHU216DAVISVP2,2013-08-15 08:41:00,
2013-08-15 04:43:00,52.2,51.7,30.17,SE,137,0.0,2.0,98,0.00,,,0.00,WUHU216DAVISVP2,2013-08-15 08:43:00,
2013-08-15 04:46:00,65.2,64.6,30.09,North,0,0.0,2.0,98,0.04,,,0.64,WUHU216DAVISVP2,2013-08-15 08:46:00,
2013-08-15 04:48:00,52.2,51.4,30.17,SE,137,0.0,2.0,97,0.00,,,0.00,WUHU216DAVISVP2,2013-08-15 08:48:00,
2013-08-15 04:51:00,65.2,64.6,30.09,NW,315,1.0,3.0,98,0.05,,,0.65,WUHU216DAVISVP2,2013-08-15 08:51:00,
2013-08-15 04:53:00,52.1,51.3,30.17,SE,137,0.0,1.0,97,0.00,,,0.00,WUHU216DAVISVP2,2013-08-15 08:53:00,
2013-08-15 04:56:00,65.2,64.6,30.09,North,0,0.0,3.0,98,0.04,,,0.65,WUHU216DAVISVP2,2013-08-15 08:56:00,
2013-08-15 04:58:00,52.1,51.3,30.17,SE,137,0.0,1.0,97,0.00,,,0.00,WUHU216DAVISVP2,2013-08-15 08:58:00,
2013-08-15 05:01:00,65.2,64.6,30.09,North,0,0.0,2.0,98,0.04,,,0.65,WUHU216DAVISVP2,2013-08-15 09:01:00,
2013-08-15 05:03:00,52.2,51.7,30.18,SE,137,0.0,2.0,98,0.00,,,0.00,WUHU216DAVISVP2,2013-08-15 09:03:00,
2013-08-15 05:06:00,65.3,64.7,30.09,NW,315,0.0,1.0,98,0.04,,,0.65,WUHU216DAVISVP2,2013-08-15 09:06:00,
2013-08-15 05:08:00,52.2,51.7,30.17,SE,137,0.0,2.0,98,0.00,,,0.00,WUHU216DAVISVP2,2013-08-15 09:08:00,
2013-08-15 05:11:00,65.2,64.6,30.08,North,0,0.0,2.0,98,0.04,,,0.65,WUHU216DAVISVP2,2013-08-15 09:11:00,
2013-08-15 05:13:00,52.2,51.7,30.17,SE,137,0.0,2.0,98,0.00,,,0.00,WUHU216DAVISVP2,2013-08-15 09:13:00,
2013-08-15 05:16:00,65.2,64.6,30.08,North,0,0.0,2.0,98,0.04,,,0.65,WUHU216DAVISVP2,2013-08-15 09:16:00,
2013-08-15 05:18:00,52.1,51.3,30.18,SE,137,0.0,2.0,97,0.00,,,0.00,WUHU216DAVISVP2,2013-08-15 09:18:00,
2013-08-15 05:21:00,65.2,64.6,30.08,NW,315,0.0,1.0,98,0.03,,,0.65,WUHU216DAVISVP2,2013-08-15 09:21:00,
2013-08-15 05:23:00,52.0,51.2,30.18,SE,137,0.0,1.0,97,0.00,,,0.00,WUHU216DAVISVP2,2013-08-15 09:23:00,
2013-08-15 05:26:00,65.2,64.6,30.07,NW,315,0.0,2.0,98,0.03,,,0.65,WUHU216DAVISVP2,2013-08-15 09:26:00,
2013-08-15 05:28:00,52.0,51.2,30.18,SE,137,0.0,1.0,97,0.00,,,0.00,WUHU216DAVISVP2,2013-08-15 09:28:00,
2013-08-15 05:31:00,65.2,64.6,30.07,NW,315,0.0,2.0,98,0.03,,,0.66,WUHU216DAVISVP2,2013-08-15 09:31:00,
2013-08-15 05:33:00,52.0,51.1,30.18,SE,137,0.0,1.0,97,0.00,,,0.00,WUHU216DAVISVP2,2013-08-15 09:33:00,
2013-08-15 05:36:00,65.2,64.6,30.07,NW,315,1.0,3.0,98,0.03,,,0.66,WUHU216DAVISVP2,2013-08-15 09:36:00,
2013-08-15 05:38:00,52.0,51.1,30.18,SE,137,0.0,1.0,97,0.00,,,0.00,WUHU216DAVISVP2,2013-08-15 09:38:00,
2013-08-15 05:41:00,65.0,64.4,30.08,NW,315,3.0,5.0,98,0.03,,,0.66,WUHU216DAVISVP2,2013-08-15 09:41:00,
2013-08-15 05:43:00,51.8,50.9,30.18,SE,137,0.0,2.0,97,0.00,,,0.00,WUHU216DAVISVP2,2013-08-15 09:43:00,
2013-08-15 05:46:00,65.0,64.4,30.08,NW,315,3.0,5.0,98,0.02,,,0.66,WUHU216DAVISVP2,2013-08-15 09:46:00,
2013-08-15 05:48:00,51.8,50.9,30.18,SE,131,1.0,3.0,97,0.00,,,0.00,WUHU216DAVISVP2,2013-08-15 09:48:00,
2013-08-15 05:51:00,64.9,64.3,30.07,NNW,338,2.0,5.0,98,0.01,,,0.66,WUHU216DAVISVP2,2013-08-15 09:51:00,
2013-08-15 05:53:00,51.7,50.8,30.18,East,83,0.0,3.0,97,0.00,,,0.00,WUHU216DAVISVP2,2013-08-15 09:53:00,
2013-08-15 05:56:00,64.8,64.2,30.08,NW,315,4.0,5.0,98,0.01,,,0.66,WUHU216DAVISVP2,2013-08-15 09:56:00,
2013-08-15 05:58:00,51.7,50.8,30.18,ENE,77,0.0,3.0,97,0.00,,,0.00,WUHU216DAVISVP2,2013-08-15 09:58:00,
2013-08-15 06:01:00,64.8,64.2,30.08,NNW,338,0.0,5.0,98,0.01,,,0.66,WUHU216DAVISVP2,2013-08-15 10:01:00,
2013-08-15 06:03:00,51.6,51.0,30.18,ENE,77,1.0,3.0,98,0.00,,,0.00,WUHU216DAVISVP2,2013-08-15 10:03:00,
2013-08-15 06:06:00,64.8,64.2,30.08,NNW,338,1.0,5.0,98,0.01,,,0.66,WUHU216DAVISVP2,2013-08-15 10:06:00,
2013-08-15 06:08:00,51.6,51.0,30.18,ENE,77,0.0,3.0,98,0.00,,,0.00,WUHU216DAVISVP2,2013-08-15 10:08:00,
2013-08-15 06:11:00,64.8,64.2,30.08,North,0,0.0,3.0,98,0.01,,,0.66,WUHU216DAVISVP2,2013-08-15 10:11:00,
2013-08-15 06:13:00,51.5,50.9,30.18,North,359,0.0,3.0,98,0.00,,,0.00,WUHU216DAVISVP2,2013-08-15 10:13:00,
2013-08-15 06:16:00,64.7,64.1,30.08,North,0,0.0,3.0,98,0.01,,,0.66,WUHU216DAVISVP2,2013-08-15 10:16:00,
2013-08-15 06:18:00,51.5,50.9,30.18,North,359,0.0,3.0,98,0.00,,,0.00,WUHU216DAVISVP2,2013-08-15 10:18:00,
2013-08-15 06:21:00,64.8,64.2,30.08,North,0,0.0,1.0,98,0.01,,,0.66,WUHU216DAVISVP2,2013-08-15 10:21:00,
2013-08-15 06:23:00,51.5,50.9,30.18,North,359,2.0,3.0,98,0.00,,,0.00,WUHU216DAVISVP2,2013-08-15 10:23:00,
2013-08-15 06:26:00,64.8,64.2,30.08,NNW,338,0.0,2.0,98,0.01,,,0.66,WUHU216DAVISVP2,2013-08-15 10:26:00,
2013-08-15 06:28:00,51.4,50.5,30.18,North,359,2.0,3.0,97,0.00,,,0.00,WUHU216DAVISVP2,2013-08-15 10:28:00,
2013-08-15 06:31:00,64.9,64.3,30.09,North,0,0.0,2.0,98,0.00,,,0.66,WUHU216DAVISVP2,2013-08-15 10:31:00,
2013-08-15 06:33:00,51.3,50.4,30.18,North,359,0.0,2.0,97,0.00,,,0.00,WUHU216DAVISVP2,2013-08-15 10:33:00,
2013-08-15 06:36:00,64.9,64.3,30.09,NNW,338,1.0,2.0,98,0.00,,,0.66,WUHU216DAVISVP2,2013-08-15 10:36:00,
2013-08-15 06:38:00,51.3,50.7,30.18,East,81,0.0,3.0,98,0.00,,,0.00,WUHU216DAVISVP2,2013-08-15 10:38:00,
2013-08-15 06:41:00,65.0,64.4,30.08,North,0,0.0,2.0,98,0.00,,,0.66,WUHU216DAVISVP2,2013-08-15 10:41:00,
2013-08-15 06:43:00,51.1,50.5,30.18,East,84,2.0,6.0,98,0.00,,,0.00,WUHU216DAVISVP2,2013-08-15 10:43:00,
2013-08-15 06:46:00,65.1,64.5,30.08,North,0,0.0,2.0,98,0.00,,,0.66,WUHU216DAVISVP2,2013-08-15 10:46:00,
2013-08-15 06:48:00,51.0,50.4,30.18,East,84,0.0,6.0,98,0.00,,,0.00,WUHU216DAVISVP2,2013-08-15 10:48:00,
2013-08-15 06:51:00,65.1,64.5,30.09,North,0,0.0,0.0,98,0.00,,,0.66,WUHU216DAVISVP2,2013-08-15 10:51:00,
2013-08-15 06:53:00,51.0,50.4,30.18,East,84,0.0,5.0,98,0.00,,,0.00,WUHU216DAVISVP2,2013-08-15 10:53:00,
2013-08-15 06:56:00,65.1,64.5,30.08,North,0,0.0,0.0,98,0.00,,,0.66,WUHU216DAVISVP2,2013-08-15 10:56:00,
2013-08-15 06:58:00,51.0,50.4,30.18,NE,38,2.0,5.0,98,0.00,,,0.00,WUHU216DAVISVP2,2013-08-15 10:58:00,
2013-08-15 07:01:00,65.0,64.4,30.09,North,0,0.0,0.0,98,0.00,,,0.66,WUHU216DAVISVP2,2013-08-15 11:01:00,
2013-08-15 07:03:00,51.0,50.5,30.19,NE,35,0.0,2.0,98,0.00,,,0.00,WUHU216DAVISVP2,2013-08-15 11:03:00,
2013-08-15 07:06:00,65.0,64.4,30.09,North,0,0.0,0.0,98,0.00,,,0.66,WUHU216DAVISVP2,2013-08-15 11:06:00,
2013-08-15 07:08:00,51.0,50.5,30.19,ENE,62,0.0,2.0,98,0.00,,,0.00,WUHU216DAVISVP2,2013-08-15 11:08:00,
2013-08-15 07:11:00,65.0,64.4,30.09,North,0,0.0,0.0,98,0.00,,,0.66,WUHU216DAVISVP2,2013-08-15 11:11:00,
2013-08-15 07:13:00,51.2,50.7,30.19,ESE,102,1.0,3.0,98,0.00,,,0.00,WUHU216DAVISVP2,2013-08-15 11:13:00,
2013-08-15 07:16:00,64.9,64.3,30.09,North,0,0.0,0.0,98,0.00,,,0.66,WUHU216DAVISVP2,2013-08-15 11:16:00,
2013-08-15 07:18:00,51.2,50.7,30.19,ESE,102,0.0,3.0,98,0.00,,,0.00,WUHU216DAVISVP2,2013-08-15 11:18:00,
2013-08-15 07:21:00,64.9,64.3,30.09,North,0,0.0,0.0,98,0.00,,,0.66,WUHU216DAVISVP2,2013-08-15 11:21:00,
2013-08-15 07:23:00,51.1,50.6,30.20,East,89,1.0,3.0,98,0.00,,,0.00,WUHU216DAVISVP2,2013-08-15 11:23:00,
2013-08-15 07:26:00,64.9,64.3,30.09,North,0,0.0,0.0,98,0.00,,,0.66,WUHU216DAVISVP2,2013-08-15 11:26:00,
2013-08-15 07:28:00,51.0,50.5,30.20,East,87,1.0,3.0,98,0.00,,,0.00,WUHU216DAVISVP2,2013-08-15 11:28:00,
2013-08-15 07:31:00,64.8,64.2,30.09,North,0,0.0,0.0,98,0.00,,,0.66,WUHU216DAVISVP2,2013-08-15 11:31:00,
2013-08-15 07:33:00,50.8,50.3,30.20,East,87,0.0,3.0,98,0.00,,,0.00,WUHU216DAVISVP2,2013-08-15 11:33:00,
2013-08-15 07:36:00,64.8,64.2,30.09,North,0,0.0,0.0,98,0.00,,,0.66,WUHU216DAVISVP2,2013-08-15 11:36:00,
2013-08-15 07:38:00,50.9,50.4,30.20,East,87,1.0,3.0,98,0.00,,,0.00,WUHU216DAVISVP2,2013-08-15 11:38:00,
2013-08-15 07:41:00,64.7,64.1,30.09,North,0,0.0,0.0,98,0.00,,,0.66,WUHU216DAVISVP2,2013-08-15 11:41:00,
2013-08-15 07:43:00,50.9,50.4,30.20,East,89,2.0,3.0,98,0.00,,,0.00,WUHU216DAVISVP2,2013-08-15 11:43:00,
2013-08-15 07:46:00,64.7,64.1,30.09,North,0,0.0,0.0,98,0.00,,,0.66,WUHU216DAVISVP2,2013-08-15 11:46:00,
2013-08-15 07:48:00,50.9,50.4,30.20,East,83,3.0,3.0,98,0.00,,,0.00,WUHU216DAVISVP2,2013-08-15 11:48:00,
2013-08-15 07:51:00,64.8,64.2,30.09,North,0,0.0,0.0,98,0.00,,,0.66,WUHU216DAVISVP2,2013-08-15 11:51:00,
2013-08-15 07:53:00,50.9,50.3,30.20,East,82,0.0,3.0,98,0.00,,,0.00,WUHU216DAVISVP2,2013-08-15 11:53:00,
2013-08-15 07:56:00,64.7,64.1,30.10,North,0,0.0,0.0,98,0.00,,,0.66,WUHU216DAVISVP2,2013-08-15 11:56:00,
2013-08-15 07:58:00,50.8,50.2,30.20,East,82,1.0,3.0,98,0.00,,,0.00,WUHU216DAVISVP2,2013-08-15 11:58:00,
2013-08-15 08:01:00,64.7,64.1,30.10,North,0,0.0,0.0,98,0.00,,,0.66,WUHU216DAVISVP2,2013-08-15 12:01:00,
2013-08-15 08:03:00,50.8,50.2,30.20,ENE,75,2.0,4.0,98,0.00,,,0.00,WUHU216DAVISVP2,2013-08-15 12:03:00,
2013-08-15 08:06:00,64.7,64.1,30.10,North,0,0.0,0.0,98,0.00,,,0.66,WUHU216DAVISVP2,2013-08-15 12:06:00,
2013-08-15 08:08:00,50.7,50.1,30.21,ENE,76,0.0,4.0,98,0.00,,,0.00,WUHU216DAVISVP2,2013-08-15 12:08:00,
2013-08-15 08:11:00,64.7,64.4,30.10,North,0,0.0,0.0,99,0.00,,,0.66,WUHU216DAVISVP2,2013-08-15 12:11:00,
2013-08-15 08:13:00,50.9,50.3,30.21,ENE,76,0.0,4.0,98,0.00,,,0.00,WUHU216DAVISVP2,2013-08-15 12:13:00,
2013-08-15 08:16:00,64.8,64.5,30.10,North,0,0.0,0.0,99,0.00,,,0.66,WUHU216DAVISVP2,2013-08-15 12:16:00,
2013-08-15 08:18:00,51.0,50.4,30.21,ENE,77,0.0,4.0,98,0.00,,,0.00,WUHU216DAVISVP2,2013-08-15 12:18:00,
2013-08-15 08:21:00,64.8,64.5,30.10,North,0,0.0,0.0,99,0.00,,,0.66,WUHU216DAVISVP2,2013-08-15 12:21:00,
2013-08-15 08:23:00,51.0,50.4,30.21,ENE,78,0.0,2.0,98,0.00,,,0.00,WUHU216DAVISVP2,2013-08-15 12:23:00,
2013-08-15 08:26:00,64.8,64.5,30.10,North,0,0.0,0.0,99,0.00,,,0.66,WUHU216DAVISVP2,2013-08-15 12:26:00,
2013-08-15 08:28:00,51.2,50.6,30.21,ESE,120,1.0,3.0,98,0.00,,,0.00,WUHU216DAVISVP2,2013-08-15 12:28:00,
2013-08-15 08:31:00,64.9,64.6,30.10,North,0,0.0,0.0,99,0.00,,,0.66,WUHU216DAVISVP2,2013-08-15 12:31:00,
2013-08-15 08:33:00,51.1,50.5,30.21,ESE,120,0.0,3.0,98,0.00,,,0.00,WUHU216DAVISVP2,2013-08-15 12:33:00,
2013-08-15 08:36:00,64.9,64.6,30.10,North,0,0.0,0.0,99,0.00,,,0.66,WUHU216DAVISVP2,2013-08-15 12:36:00,
2013-08-15 08:38:00,51.1,50.5,30.21,ESE,120,1.0,3.0,98,0.00,,,0.00,WUHU216DAVISVP2,2013-08-15 12:38:00,
2013-08-15 08:41:00,65.0,64.7,30.10,North,0,0.0,0.0,99,0.00,,,0.66,WUHU216DAVISVP2,2013-08-15 12:41:00,
2013-08-15 08:43:00,50.9,50.3,30.21,ESE,120,0.0,3.0,98,0.00,,,0.00,WUHU216DAVISVP2,2013-08-15 12:43:00,
2013-08-15 08:46:00,65.0,64.7,30.10,North,0,0.0,0.0,99,0.00,,,0.66,WUHU216DAVISVP2,2013-08-15 12:46:00,
2013-08-15 08:48:00,51.0,50.4,30.21,NE,35,2.0,2.0,98,0.00,,,0.00,WUHU216DAVISVP2,2013-08-15 12:48:00,
2013-08-15 08:51:00,65.0,64.7,30.10,North,0,0.0,0.0,99,0.00,,,0.66,WUHU216DAVISVP2,2013-08-15 12:51:00,
2013-08-15 08:53:00,51.1,50.5,30.22,NNW,334,0.0,3.0,98,0.00,,,0.00,WUHU216DAVISVP2,2013-08-15 12:53:00,
2013-08-15 08:56:00,65.0,64.7,30.10,North,0,0.0,0.0,99,0.00,,,0.66,WUHU216DAVISVP2,2013-08-15 12:56:00,
2013-08-15 08:58:00,51.2,50.6,30.22,NNW,335,1.0,3.0,98,0.00,,,0.00,WUHU216DAVISVP2,2013-08-15 12:58:00,
2013-08-15 09:01:00,65.0,64.7,30.10,North,0,0.0,0.0,99,0.00,,,0.66,WUHU216DAVISVP2,2013-08-15 13:01:00,
2013-08-15 09:03:00,51.3,50.7,30.21,NNW,335,0.0,3.0,98,0.00,,,0.00,WUHU216DAVISVP2,2013-08-15 13:03:00,
2013-08-15 09:06:00,64.9,64.6,30.10,North,0,0.0,0.0,99,0.00,,,0.66,WUHU216DAVISVP2,2013-08-15 13:06:00,
2013-08-15 09:08:00,51.4,50.5,30.21,NE,48,2.0,3.0,97,0.00,,,0.00,WUHU216DAVISVP2,2013-08-15 13:08:00,
2013-08-15 09:11:00,65.0,64.7,30.10,North,0,0.0,0.0,99,0.00,,,0.66,WUHU216DAVISVP2,2013-08-15 13:11:00,
2013-08-15 09:13:00,51.5,50.6,30.21,ENE,59,0.0,4.0,97,0.00,,,0.00,WUHU216DAVISVP2,2013-08-15 13:13:00,
2013-08-15 09:16:00,65.0,64.7,30.10,North,0,0.0,0.0,99,0.00,,,0.66,WUHU216DAVISVP2,2013-08-15 13:16:00,
2013-08-15 09:18:00,51.7,51.1,30.21,ENE,59,0.0,4.0,98,0.00,,,0.00,WUHU216DAVISVP2,2013-08-15 13:18:00,
2013-08-15 09:21:00,65.0,64.7,30.10,North,0,0.0,0.0,99,0.00,,,0.66,WUHU216DAVISVP2,2013-08-15 13:21:00,
2013-08-15 09:23:00,52.1,51.5,30.21,ENE,76,0.0,4.0,98,0.00,,,0.00,WUHU216DAVISVP2,2013-08-15 13:23:00,
2013-08-15 09:26:00,65.0,64.7,30.10,North,0,0.0,0.0,99,0.00,,,0.66,WUHU216DAVISVP2,2013-08-15 13:26:00,
2013-08-15 09:28:00,52.4,51.8,30.21,East,96,0.0,5.0,98,0.00,,,0.00,WUHU216DAVISVP2,2013-08-15 13:28:00,
2013-08-15 09:31:00,65.0,64.7,30.10,North,0,0.0,0.0,99,0.00,,,0.66,WUHU216DAVISVP2,2013-08-15 13:31:00,
2013-08-15 09:33:00,52.7,51.9,30.21,ESE,107,0.0,5.0,97,0.00,,,0.00,WUHU216DAVISVP2,2013-08-15 13:33:00,
2013-08-15 09:36:00,65.0,64.7,30.10,North,0,0.0,0.0,99,0.00,,,0.66,WUHU216DAVISVP2,2013-08-15 13:36:00,
2013-08-15 09:38:00,52.7,51.9,30.21,ESE,114,0.0,5.0,97,0.00,,,0.00,WUHU216DAVISVP2,2013-08-15 13:38:00,
2013-08-15 09:41:00,65.1,64.8,30.09,North,0,0.0,0.0,99,0.00,,,0.66,WUHU216DAVISVP2,2013-08-15 13:41:00,
2013-08-15 09:43:00,52.7,51.6,30.21,ESE,115,0.0,5.0,96,0.00,,,0.00,WUHU216DAVISVP2,2013-08-15 13:43:00,
2013-08-15 09:46:00,65.1,64.8,30.10,North,0,0.0,0.0,99,0.00,,,0.66,WUHU216DAVISVP2,2013-08-15 13:46:00,
2013-08-15 09:48:00,52.9,51.8,30.21,SW,214,2.0,4.0,96,0.00,,,0.00,WUHU216DAVISVP2,2013-08-15 13:48:00,
2013-08-15 09:51:00,65.1,64.8,30.10,North,0,0.0,0.0,99,0.00,,,0.66,WUHU216DAVISVP2,2013-08-15 13:51:00,
2013-08-15 09:53:00,53.0,51.9,30.21,SSW,209,0.0,4.0,96,0.00,,,0.00,WUHU216DAVISVP2,2013-08-15 13:53:00,
2013-08-15 09:56:00,65.1,64.8,30.10,North,0,0.0,0.0,99,0.00,,,0.66,WUHU216DAVISVP2,2013-08-15 13:56:00,
2013-08-15 09:58:00,52.9,51.5,30.21,SW,226,0.0,4.0,95,0.00,,,0.00,WUHU216DAVISVP2,2013-08-15 13:58:00,
2013-08-15 10:01:00,65.1,64.8,30.10,North,0,0.0,0.0,99,0.00,,,0.66,WUHU216DAVISVP2,2013-08-15 14:01:00,
2013-08-15 10:03:00,53.1,51.7,30.21,South,189,0.0,4.0,95,0.00,,,0.00,WUHU216DAVISVP2,2013-08-15 14:03:00,
2013-08-15 10:06:00,65.1,64.8,30.10,North,0,0.0,0.0,99,0.01,,,0.67,WUHU216DAVISVP2,2013-08-15 14:06:00,
2013-08-15 10:08:00,53.3,52.2,30.21,ESE,102,2.0,3.0,96,0.00,,,0.00,WUHU216DAVISVP2,2013-08-15 14:08:00,
2013-08-15 10:11:00,65.1,64.8,30.09,North,0,0.0,0.0,99,0.05,,,0.71,WUHU216DAVISVP2,2013-08-15 14:11:00,
2013-08-15 10:13:00,53.6,52.2,30.21,East,83,2.0,3.0,95,0.00,,,0.00,WUHU216DAVISVP2,2013-08-15 14:13:00,
2013-08-15 10:16:00,65.1,64.8,30.09,North,0,0.0,0.0,99,0.10,,,0.76,WUHU216DAVISVP2,2013-08-15 14:16:00,
2013-08-15 10:18:00,54.1,52.9,30.21,East,83,1.0,3.0,96,0.00,,,0.00,WUHU216DAVISVP2,2013-08-15 14:18:00,
2013-08-15 10:21:00,65.1,64.8,30.08,North,0,0.0,0.0,99,0.13,,,0.79,WUHU216DAVISVP2,2013-08-15 14:21:00,
2013-08-15 10:23:00,54.5,52.8,30.21,East,82,1.0,3.0,94,0.00,,,0.00,WUHU216DAVISVP2,2013-08-15 14:23:00,
2013-08-15 10:26:00,65.1,64.8,30.08,North,0,0.0,0.0,99,0.13,,,0.79,WUHU216DAVISVP2,2013-08-15 14:26:00,
2013-08-15 10:28:00,54.7,52.7,30.21,North,4,2.0,4.0,93,0.00,,,0.00,WUHU216DAVISVP2,2013-08-15 14:28:00,
2013-08-15 10:31:00,65.1,64.8,30.08,North,0,0.0,0.0,99,0.14,,,0.80,WUHU216DAVISVP2,2013-08-15 14:31:00,
2013-08-15 10:33:00,54.8,52.5,30.21,North,4,1.0,4.0,92,0.00,,,0.00,WUHU216DAVISVP2,2013-08-15 14:33:00,
2013-08-15 10:36:00,65.0,64.7,30.08,North,0,0.0,0.0,99,0.14,,,0.80,WUHU216DAVISVP2,2013-08-15 14:36:00,
2013-08-15 10:38:00,55.1,53.1,30.21,North,8,0.0,4.0,93,0.00,,,0.00,WUHU216DAVISVP2,2013-08-15 14:38:00,
2013-08-15 10:41:00,65.0,64.7,30.08,North,0,0.0,0.0,99,0.14,,,0.80,WUHU216DAVISVP2,2013-08-15 14:41:00,
2013-08-15 10:44:00,55.5,53.2,30.21,North,4,1.0,4.0,92,0.00,,,0.00,WUHU216DAVISVP2,2013-08-15 14:44:00,
2013-08-15 10:46:00,65.0,64.7,30.08,North,0,0.0,0.0,99,0.14,,,0.80,WUHU216DAVISVP2,2013-08-15 14:46:00,
2013-08-15 10:49:00,55.9,53.3,30.21,North,4,1.0,3.0,91,0.00,,,0.00,WUHU216DAVISVP2,2013-08-15 14:49:00,
2013-08-15 10:51:00,65.0,64.7,30.08,North,0,0.0,0.0,99,0.14,,,0.80,WUHU216DAVISVP2,2013-08-15 14:51:00,
2013-08-15 10:54:00,56.6,53.7,30.21,North,359,2.0,2.0,90,0.00,,,0.00,WUHU216DAVISVP2,2013-08-15 14:54:00,
2013-08-15 10:56:00,65.0,64.7,30.08,North,0,0.0,0.0,99,0.14,,,0.80,WUHU216DAVISVP2,2013-08-15 14:56:00,
2013-08-15 10:59:00,57.2,53.7,30.20,North,359,0.0,2.0,88,0.00,,,0.00,WUHU216DAVISVP2,2013-08-15 14:59:00,
2013-08-15 11:01:00,65.0,64.7,30.08,North,0,0.0,0.0,99,0.14,,,0.80,WUHU216DAVISVP2,2013-08-15 15:01:00,
2013-08-15 11:04:00,58.0,54.1,30.20,North,354,1.0,2.0,87,0.00,,,0.00,WUHU216DAVISVP2,2013-08-15 15:04:00,
2013-08-15 11:06:00,65.0,64.7,30.08,North,0,0.0,0.0,99,0.12,,,0.80,WUHU216DAVISVP2,2013-08-15 15:06:00,
2013-08-15 11:09:00,59.0,54.5,30.20,West,276,2.0,2.0,85,0.00,,,0.00,WUHU216DAVISVP2,2013-08-15 15:09:00,
2013-08-15 11:11:00,64.9,64.6,30.08,North,0,0.0,0.0,99,0.08,,,0.80,WUHU216DAVISVP2,2013-08-15 15:11:00,
2013-08-15 11:14:00,59.8,55.0,30.20,SW,223,0.0,3.0,84,0.00,,,0.00,WUHU216DAVISVP2,2013-08-15 15:14:00,
2013-08-15 11:16:00,64.9,64.6,30.08,North,0,0.0,0.0,99,0.03,,,0.80,WUHU216DAVISVP2,2013-08-15 15:16:00,
2013-08-15 11:19:00,60.6,54.8,30.20,SW,228,1.0,3.0,81,0.00,,,0.00,WUHU216DAVISVP2,2013-08-15 15:19:00,
2013-08-15 11:21:00,64.8,64.5,30.07,North,0,0.0,0.0,99,0.01,,,0.80,WUHU216DAVISVP2,2013-08-15 15:21:00,
2013-08-15 11:24:00,61.7,55.2,30.20,WNW,296,0.0,3.0,79,0.00,,,0.00,WUHU216DAVISVP2,2013-08-15 15:24:00,
2013-08-15 11:26:00,64.7,64.4,30.07,North,0,0.0,0.0,99,0.01,,,0.80,WUHU216DAVISVP2,2013-08-15 15:26:00,
2013-08-15 11:29:00,62.4,54.8,30.19,NW,305,1.0,3.0,76,0.00,,,0.00,WUHU216DAVISVP2,2013-08-15 15:29:00,
2013-08-15 11:31:00,64.6,64.3,30.07,North,0,0.0,0.0,99,0.00,,,0.80,WUHU216DAVISVP2,2013-08-15 15:31:00,
2013-08-15 11:34:00,63.2,54.4,30.19,West,261,1.0,3.0,73,0.00,,,0.00,WUHU216DAVISVP2,2013-08-15 15:34:00,
2013-08-15 11:36:00,64.6,64.3,30.07,North,0,0.0,0.0,99,0.00,,,0.80,WUHU216DAVISVP2,2013-08-15 15:36:00,
2013-08-15 11:39:00,64.1,55.3,30.19,North,359,0.0,3.0,73,0.00,,,0.00,WUHU216DAVISVP2,2013-08-15 15:39:00,
2013-08-15 11:41:00,64.6,64.3,30.07,North,0,0.0,0.0,99,0.00,,,0.80,WUHU216DAVISVP2,2013-08-15 15:41:00,
2013-08-15 11:44:00,65.0,55.0,30.19,North,8,1.0,3.0,70,0.00,,,0.00,WUHU216DAVISVP2,2013-08-15 15:44:00,
2013-08-15 11:46:00,64.5,64.2,30.07,North,0,0.0,0.0,99,0.00,,,0.80,WUHU216DAVISVP2,2013-08-15 15:46:00,
2013-08-15 11:49:00,65.7,52.5,30.19,East,93,2.0,6.0,62,0.00,,,0.00,WUHU216DAVISVP2,2013-08-15 15:49:00,
2013-08-15 11:51:00,64.5,64.2,30.06,North,0,0.0,0.0,99,0.00,,,0.80,WUHU216DAVISVP2,2013-08-15 15:51:00,
2013-08-15 11:54:00,66.0,53.2,30.19,East,87,2.0,6.0,63,0.00,,,0.00,WUHU216DAVISVP2,2013-08-15 15:54:00,
2013-08-15 11:56:00,64.5,64.2,30.06,North,0,0.0,0.0,99,0.00,,,0.80,WUHU216DAVISVP2,2013-08-15 15:56:00,
2013-08-15 11:59:00,66.3,53.1,30.18,NNE,27,0.0,5.0,62,0.00,,,0.00,WUHU216DAVISVP2,2013-08-15 15:59:00,
2013-08-15 12:01:00,64.4,64.1,30.06,North,0,0.0,0.0,99,0.00,,,0.80,WUHU216DAVISVP2,2013-08-15 16:01:00,
2013-08-15 12:04:00,66.8,52.2,30.18,NNE,24,3.0,7.0,59,0.00,,,0.00,WUHU216DAVISVP2,2013-08-15 16:04:00,
2013-08-15 12:06:00,64.5,64.2,30.06,North,0,0.0,0.0,99,0.00,,,0.80,WUHU216DAVISVP2,2013-08-15 16:06:00,
2013-08-15 12:09:00,66.8,54.8,30.18,North,349,0.0,7.0,65,0.00,,,0.00,WUHU216DAVISVP2,2013-08-15 16:09:00,
2013-08-15 12:11:00,64.4,64.1,30.06,North,0,0.0,0.0,99,0.00,,,0.80,WUHU216DAVISVP2,2013-08-15 16:11:00,
2013-08-15 12:14:00,67.1,52.7,30.17,NW,308,1.0,6.0,60,0.00,,,0.00,WUHU216DAVISVP2,2013-08-15 16:14:00,
2013-08-15 12:16:00,64.5,64.2,30.07,North,0,0.0,0.0,99,0.00,,,0.80,WUHU216DAVISVP2,2013-08-15 16:16:00,
2013-08-15 12:19:00,67.5,53.6,30.17,North,4,4.0,6.0,61,0.00,,,0.00,WUHU216DAVISVP2,2013-08-15 16:19:00,
2013-08-15 12:21:00,64.5,64.2,30.07,North,0,0.0,0.0,99,0.00,,,0.80,WUHU216DAVISVP2,2013-08-15 16:21:00,
2013-08-15 12:24:00,67.6,52.8,30.17,North,354,0.0,5.0,59,0.00,,,0.00,WUHU216DAVISVP2,2013-08-15 16:24:00,
2013-08-15 12:26:00,64.6,64.3,30.07,North,0,0.0,0.0,99,0.00,,,0.80,WUHU216DAVISVP2,2013-08-15 16:26:00,
2013-08-15 12:29:00,67.8,52.2,30.17,West,280,1.0,6.0,57,0.00,,,0.00,WUHU216DAVISVP2,2013-08-15 16:29:00,
2013-08-15 12:31:00,64.7,64.4,30.07,North,0,0.0,0.0,99,0.00,,,0.80,WUHU216DAVISVP2,2013-08-15 16:31:00,
2013-08-15 12:34:00,68.1,53.4,30.17,ESE,118,5.0,6.0,59,0.00,,,0.00,WUHU216DAVISVP2,2013-08-15 16:34:00,
2013-08-15 12:36:00,64.7,64.4,30.07,North,0,0.0,0.0,99,0.00,,,0.80,WUHU216DAVISVP2,2013-08-15 16:36:00,
2013-08-15 12:39:00,68.1,51.9,30.16,ENE,60,3.0,8.0,56,0.00,,,0.00,WUHU216DAVISVP2,2013-08-15 16:39:00,
2013-08-15 12:41:00,64.6,64.3,30.07,North,0,0.0,0.0,99,0.00,,,0.80,WUHU216DAVISVP2,2013-08-15 16:41:00,
2013-08-15 12:44:00,68.2,53.5,30.16,East,99,0.0,8.0,59,0.00,,,0.00,WUHU216DAVISVP2,2013-08-15 16:44:00,
2013-08-15 12:46:00,64.6,64.3,30.07,North,0,0.0,0.0,99,0.00,,,0.80,WUHU216DAVISVP2,2013-08-15 16:46:00,
2013-08-15 12:49:00,68.7,53.5,30.16,WSW,253,3.0,8.0,58,0.00,,,0.00,WUHU216DAVISVP2,2013-08-15 16:49:00,
2013-08-15 12:51:00,64.5,64.2,30.07,North,0,0.0,0.0,99,0.00,,,0.80,WUHU216DAVISVP2,2013-08-15 16:51:00,
2013-08-15 12:54:00,69.2,53.5,30.16,SW,224,0.0,6.0,57,0.00,,,0.00,WUHU216DAVISVP2,2013-08-15 16:54:00,
2013-08-15 12:56:00,64.4,64.1,30.07,North,0,0.0,0.0,99,0.00,,,0.80,WUHU216DAVISVP2,2013-08-15 16:56:00,
2013-08-15 12:59:00,69.7,54.4,30.16,WSW,246,0.0,5.0,58,0.00,,,0.00,WUHU216DAVISVP2,2013-08-15 16:59:00,
2013-08-15 13:01:00,64.3,64.0,30.07,North,0,0.0,0.0,99,0.00,,,0.80,WUHU216DAVISVP2,2013-08-15 17:01:00,
2013-08-15 13:04:00,70.4,54.6,30.16,SW,222,3.0,5.0,57,0.00,,,0.00,WUHU216DAVISVP2,2013-08-15 17:04:00,
2013-08-15 13:06:00,64.2,63.9,30.08,North,0,0.0,0.0,99,0.00,,,0.80,WUHU216DAVISVP2,2013-08-15 17:06:00,
2013-08-15 13:09:00,70.8,53.5,30.16,SW,221,0.0,4.0,54,0.00,,,0.00,WUHU216DAVISVP2,2013-08-15 17:09:00,
2013-08-15 13:11:00,64.2,63.9,30.08,North,0,0.0,0.0,99,0.00,,,0.80,WUHU216DAVISVP2,2013-08-15 17:11:00,
2013-08-15 13:14:00,70.7,55.4,30.15,South,181,1.0,4.0,58,0.00,,,0.00,WUHU216DAVISVP2,2013-08-15 17:14:00,
2013-08-15 13:16:00,64.2,63.9,30.08,North,0,0.0,0.0,99,0.01,,,0.81,WUHU216DAVISVP2,2013-08-15 17:16:00,
2013-08-15 13:19:00,70.7,53.4,30.15,ENE,58,4.0,5.0,54,0.00,,,0.00,WUHU216DAVISVP2,2013-08-15 17:19:00,
2013-08-15 13:21:00,64.2,63.9,30.07,North,0,0.0,0.0,99,0.01,,,0.81,WUHU216DAVISVP2,2013-08-15 17:21:00,
2013-08-15 13:25:00,70.5,54.2,30.15,SW,220,1.0,5.0,56,0.00,,,0.00,WUHU216DAVISVP2,2013-08-15 17:25:00,
2013-08-15 13:26:00,64.2,63.9,30.07,North,0,0.0,0.0,99,0.01,,,0.81,WUHU216DAVISVP2,2013-08-15 17:26:00,
2013-08-15 13:30:00,71.2,54.3,30.15,SW,226,0.0,5.0,55,0.00,,,0.00,WUHU216DAVISVP2,2013-08-15 17:30:00,
2013-08-15 13:31:00,64.1,63.8,30.07,North,0,0.0,0.0,99,0.01,,,0.81,WUHU216DAVISVP2,2013-08-15 17:31:00,
2013-08-15 13:35:00,71.7,54.8,30.15,SSW,199,3.0,5.0,55,0.00,,,0.00,WUHU216DAVISVP2,2013-08-15 17:35:00,
2013-08-15 13:36:00,64.1,63.8,30.07,North,0,0.0,0.0,99,0.01,,,0.81,WUHU216DAVISVP2,2013-08-15 17:36:00,
2013-08-15 13:40:00,72.1,55.7,30.14,SW,216,0.0,5.0,56,0.00,,,0.00,WUHU216DAVISVP2,2013-08-15 17:40:00,
2013-08-15 13:41:00,64.1,63.8,30.07,North,0,0.0,0.0,99,0.01,,,0.81,WUHU216DAVISVP2,2013-08-15 17:41:00,
2013-08-15 13:45:00,72.1,53.5,30.14,South,183,1.0,5.0,52,0.00,,,0.00,WUHU216DAVISVP2,2013-08-15 17:45:00,
2013-08-15 13:46:00,64.1,63.8,30.07,North,0,0.0,0.0,99,0.01,,,0.81,WUHU216DAVISVP2,2013-08-15 17:46:00,
2013-08-15 13:50:00,72.3,53.8,30.14,South,185,0.0,5.0,52,0.00,,,0.00,WUHU216DAVISVP2,2013-08-15 17:50:00,
2013-08-15 13:51:00,64.1,63.8,30.07,North,0,0.0,0.0,99,0.01,,,0.81,WUHU216DAVISVP2,2013-08-15 17:51:00,
2013-08-15 13:55:00,72.9,53.8,30.14,North,359,0.0,5.0,51,0.00,,,0.00,WUHU216DAVISVP2,2013-08-15 17:55:00,
2013-08-15 13:56:00,64.1,63.8,30.07,North,0,0.0,0.0,99,0.01,,,0.81,WUHU216DAVISVP2,2013-08-15 17:56:00,
2013-08-15 14:00:00,73.5,55.4,30.13,East,92,0.0,5.0,53,0.00,,,0.00,WUHU216DAVISVP2,2013-08-15 18:00:00,
2013-08-15 14:01:00,64.1,63.8,30.07,North,0,0.0,0.0,99,0.01,,,0.81,WUHU216DAVISVP2,2013-08-15 18:01:00,
2013-08-15 14:06:00,73.2,56.7,30.13,NW,318,2.0,5.0,56,0.00,,,0.00,WUHU216DAVISVP2,2013-08-15 18:06:00,
2013-08-15 14:11:00,73.1,54.5,30.13,NW,318,1.0,5.0,52,0.00,,,0.00,WUHU216DAVISVP2,2013-08-15 18:11:00,
2013-08-15 14:16:00,73.4,52.6,30.12,NNE,27,0.0,5.0,48,0.00,,,0.00,WUHU216DAVISVP2,2013-08-15 18:16:00,
2013-08-15 14:21:00,73.5,53.8,30.12,NE,41,3.0,7.0,50,0.00,,,0.00,WUHU216DAVISVP2,2013-08-15 18:21:00,
2013-08-15 14:26:00,73.5,53.2,30.12,NW,310,1.0,7.0,49,0.00,,,0.00,WUHU216DAVISVP2,2013-08-15 18:26:00,
2013-08-15 14:31:00,73.1,52.8,30.12,NW,316,3.0,7.0,49,0.00,,,0.00,WUHU216DAVISVP2,2013-08-15 18:31:00,
2013-08-15 14:36:00,73.3,53.0,30.12,NW,322,2.0,7.0,49,0.00,,,0.00,WUHU216DAVISVP2,2013-08-15 18:36:00,
2013-08-15 14:41:00,73.8,54.1,30.11,WSW,247,0.0,6.0,50,0.00,,,0.00,WUHU216DAVISVP2,2013-08-15 18:41:00,
2013-08-15 14:46:00,73.8,54.1,30.11,NNE,23,1.0,5.0,50,0.00,,,0.00,WUHU216DAVISVP2,2013-08-15 18:46:00,
2013-08-15 14:51:00,73.3,53.0,30.11,ESE,103,2.0,4.0,49,0.00,,,0.00,WUHU216DAVISVP2,2013-08-15 18:51:00,
2013-08-15 14:56:00,73.3,55.6,30.11,SE,131,0.0,4.0,54,0.00,,,0.00,WUHU216DAVISVP2,2013-08-15 18:56:00,
2013-08-15 15:01:00,73.6,54.4,30.11,ESE,110,0.0,6.0,51,0.00,,,0.00,WUHU216DAVISVP2,2013-08-15 19:01:00,
2013-08-15 15:06:00,73.9,53.6,30.11,WSW,243,3.0,6.0,49,0.00,,,0.00,WUHU216DAVISVP2,2013-08-15 19:06:00,
2013-08-15 15:11:00,74.0,54.8,30.11,SW,217,0.0,6.0,51,0.00,,,0.00,WUHU216DAVISVP2,2013-08-15 19:11:00,
2013-08-15 15:16:00,74.2,53.3,30.10,WNW,284,0.0,5.0,48,0.00,,,0.00,WUHU216DAVISVP2,2013-08-15 19:16:00,
2013-08-15 15:21:00,74.5,55.3,30.10,SW,224,2.0,5.0,51,0.00,,,0.00,WUHU216DAVISVP2,2013-08-15 19:21:00,
2013-08-15 15:26:00,74.4,53.4,30.10,WNW,300,0.0,5.0,48,0.00,,,0.00,WUHU216DAVISVP2,2013-08-15 19:26:00,
2013-08-15 15:31:00,74.3,53.4,30.10,NW,326,1.0,5.0,48,0.00,,,0.00,WUHU216DAVISVP2,2013-08-15 19:31:00,
2013-08-15 15:36:00,74.4,54.1,30.09,West,281,0.0,5.0,49,0.00,,,0.00,WUHU216DAVISVP2,2013-08-15 19:36:00,
2013-08-15 15:41:00,74.7,56.0,30.09,NNW,334,3.0,5.0,52,0.00,,,0.00,WUHU216DAVISVP2,2013-08-15 19:41:00,
2013-08-15 15:46:00,74.1,53.8,30.09,North,354,3.0,6.0,49,0.00,,,0.00,WUHU216DAVISVP2,2013-08-15 19:46:00,
2013-08-15 15:51:00,74.1,54.4,30.09,North,4,0.0,6.0,50,0.00,,,0.00,WUHU216DAVISVP2,2013-08-15 19:51:00,
2013-08-15 15:56:00,65.6,65.3,30.08,North,0,0.0,0.0,99,0.00,,,0.81,WUHU216DAVISVP2,2013-08-15 19:56:00,
2013-08-15 15:57:00,74.6,54.7,30.09,NNE,31,0.0,6.0,50,0.00,,,0.00,WUHU216DAVISVP2,2013-08-15 19:57:00,
2013-08-15 16:01:00,65.7,65.4,30.08,North,0,0.0,0.0,99,0.00,,,0.81,WUHU216DAVISVP2,2013-08-15 20:01:00,
2013-08-15 16:02:00,74.8,55.0,30.09,NW,312,4.0,4.0,50,0.00,,,0.00,WUHU216DAVISVP2,2013-08-15 20:02:00,
2013-08-15 16:06:00,65.7,65.4,30.08,North,0,0.0,0.0,99,0.00,,,0.81,WUHU216DAVISVP2,2013-08-15 20:06:00,
2013-08-15 16:08:00,74.6,53.7,30.09,WNW,283,1.0,5.0,48,0.00,,,0.00,WUHU216DAVISVP2,2013-08-15 20:08:00,
2013-08-15 16:11:00,65.8,65.5,30.08,North,0,0.0,0.0,99,0.00,,,0.81,WUHU216DAVISVP2,2013-08-15 20:11:00,
2013-08-15 16:13:00,74.4,54.1,30.08,SW,223,2.0,5.0,49,0.00,,,0.00,WUHU216DAVISVP2,2013-08-15 20:13:00,
2013-08-15 16:16:00,65.9,65.6,30.08,North,0,0.0,0.0,99,0.00,,,0.81,WUHU216DAVISVP2,2013-08-15 20:16:00,
2013-08-15 16:18:00,74.6,56.5,30.08,South,178,1.0,5.0,53,0.00,,,0.00,WUHU216DAVISVP2,2013-08-15 20:18:00,
2013-08-15 16:21:00,66.0,65.7,30.08,North,0,0.0,0.0,99,0.00,,,0.81,WUHU216DAVISVP2,2013-08-15 20:21:00,
2013-08-15 16:23:00,75.0,56.8,30.08,SSW,197,1.0,5.0,53,0.00,,,0.00,WUHU216DAVISVP2,2013-08-15 20:23:00,
2013-08-15 16:26:00,66.0,65.7,30.08,North,0,0.0,0.0,99,0.00,,,0.81,WUHU216DAVISVP2,2013-08-15 20:26:00,
2013-08-15 16:28:00,75.2,55.4,30.08,NW,313,2.0,6.0,50,0.00,,,0.00,WUHU216DAVISVP2,2013-08-15 20:28:00,
2013-08-15 16:31:00,66.0,65.7,30.08,North,0,0.0,0.0,99,0.00,,,0.81,WUHU216DAVISVP2,2013-08-15 20:31:00,
2013-08-15 16:33:00,75.2,57.6,30.08,SSW,208,4.0,6.0,54,0.00,,,0.00,WUHU216DAVISVP2,2013-08-15 20:33:00,
2013-08-15 16:36:00,66.1,65.8,30.07,North,0,0.0,0.0,99,0.00,,,0.81,WUHU216DAVISVP2,2013-08-15 20:36:00,
2013-08-15 16:38:00,75.1,54.7,30.08,SSW,202,4.0,7.0,49,0.00,,,0.00,WUHU216DAVISVP2,2013-08-15 20:38:00,
2013-08-15 16:41:00,66.5,66.2,30.07,North,0,0.0,0.0,99,0.00,,,0.81,WUHU216DAVISVP2,2013-08-15 20:41:00,
2013-08-15 16:43:00,74.9,55.1,30.08,West,279,1.0,7.0,50,0.00,,,0.00,WUHU216DAVISVP2,2013-08-15 20:43:00,
2013-08-15 16:46:00,66.6,66.3,30.07,North,0,0.0,0.0,99,0.00,,,0.81,WUHU216DAVISVP2,2013-08-15 20:46:00,
2013-08-15 16:48:00,74.7,54.3,30.08,WNW,289,2.0,7.0,49,0.00,,,0.00,WUHU216DAVISVP2,2013-08-15 20:48:00,
2013-08-15 16:51:00,66.7,66.4,30.07,North,0,0.0,0.0,99,0.00,,,0.81,WUHU216DAVISVP2,2013-08-15 20:51:00,
2013-08-15 16:53:00,74.8,54.9,30.08,SW,217,4.0,7.0,50,0.00,,,0.00,WUHU216DAVISVP2,2013-08-15 20:53:00,
2013-08-15 16:56:00,66.8,66.5,30.07,North,0,0.0,0.0,99,0.00,,,0.81,WUHU216DAVISVP2,2013-08-15 20:56:00,
2013-08-15 16:58:00,74.9,55.6,30.08,WSW,250,2.0,5.0,51,0.00,,,0.00,WUHU216DAVISVP2,2013-08-15 20:58:00,
2013-08-15 17:01:00,66.8,66.5,30.08,North,0,0.0,0.0,99,0.00,,,0.81,WUHU216DAVISVP2,2013-08-15 21:01:00,
2013-08-15 17:03:00,75.0,55.1,30.08,SSW,203,3.0,6.0,50,0.00,,,0.00,WUHU216DAVISVP2,2013-08-15 21:03:00,
2013-08-15 17:06:00,66.8,66.5,30.08,North,0,0.0,0.0,99,0.00,,,0.81,WUHU216DAVISVP2,2013-08-15 21:06:00,
2013-08-15 17:08:00,75.1,54.7,30.08,SW,219,2.0,6.0,49,0.00,,,0.00,WUHU216DAVISVP2,2013-08-15 21:08:00,
2013-08-15 17:11:00,67.1,66.8,30.08,North,0,0.0,0.0,99,0.00,,,0.81,WUHU216DAVISVP2,2013-08-15 21:11:00,
2013-08-15 17:14:00,75.0,54.6,30.08,WNW,283,2.0,6.0,49,0.00,,,0.00,WUHU216DAVISVP2,2013-08-15 21:14:00,
2013-08-15 17:16:00,67.3,67.0,30.08,North,0,0.0,0.0,99,0.00,,,0.81,WUHU216DAVISVP2,2013-08-15 21:16:00,
2013-08-15 17:19:00,75.0,53.4,30.08,WNW,293,1.0,6.0,47,0.00,,,0.00,WUHU216DAVISVP2,2013-08-15 21:19:00,
2013-08-15 17:21:00,67.5,67.2,30.07,North,0,0.0,0.0,99,0.00,,,0.81,WUHU216DAVISVP2,2013-08-15 21:21:00,
2013-08-15 17:24:00,75.3,55.5,30.08,WSW,242,0.0,5.0,50,0.00,,,0.00,WUHU216DAVISVP2,2013-08-15 21:24:00,
2013-08-15 17:26:00,67.6,67.3,30.08,North,0,0.0,0.0,99,0.00,,,0.81,WUHU216DAVISVP2,2013-08-15 21:26:00,
2013-08-15 17:29:00,75.6,53.4,30.08,West,259,1.0,5.0,46,0.00,,,0.00,WUHU216DAVISVP2,2013-08-15 21:29:00,
2013-08-15 17:31:00,67.8,67.2,30.07,North,0,0.0,0.0,98,0.00,,,0.81,WUHU216DAVISVP2,2013-08-15 21:31:00,
2013-08-15 17:34:00,75.2,54.2,30.08,West,277,1.0,5.0,48,0.00,,,0.00,WUHU216DAVISVP2,2013-08-15 21:34:00,
2013-08-15 17:36:00,68.2,67.6,30.07,North,0,0.0,0.0,98,0.00,,,0.81,WUHU216DAVISVP2,2013-08-15 21:36:00,
2013-08-15 17:39:00,75.3,55.4,30.08,SSW,212,2.0,5.0,50,0.00,,,0.00,WUHU216DAVISVP2,2013-08-15 21:39:00,
2013-08-15 17:41:00,68.2,67.0,30.07,North,0,0.0,0.0,96,0.00,,,0.81,WUHU216DAVISVP2,2013-08-15 21:41:00,
2013-08-15 17:44:00,75.2,53.0,30.08,SW,216,1.0,4.0,46,0.00,,,0.00,WUHU216DAVISVP2,2013-08-15 21:44:00,
2013-08-15 17:46:00,68.3,66.5,30.07,North,0,0.0,0.0,94,0.00,,,0.81,WUHU216DAVISVP2,2013-08-15 21:46:00,
2013-08-15 17:49:00,75.0,55.6,30.08,SW,217,0.0,4.0,51,0.00,,,0.00,WUHU216DAVISVP2,2013-08-15 21:49:00,
2013-08-15 17:51:00,68.5,66.4,30.07,North,0,0.0,0.0,93,0.00,,,0.81,WUHU216DAVISVP2,2013-08-15 21:51:00,
2013-08-15 17:54:00,74.9,53.9,30.08,SW,218,0.0,4.0,48,0.00,,,0.00,WUHU216DAVISVP2,2013-08-15 21:54:00,
2013-08-15 17:56:00,68.7,66.0,30.08,North,0,0.0,0.0,91,0.00,,,0.81,WUHU216DAVISVP2,2013-08-15 21:56:00,
2013-08-15 17:59:00,74.9,56.1,30.08,NNW,330,0.0,4.0,52,0.00,,,0.00,WUHU216DAVISVP2,2013-08-15 21:59:00,
2013-08-15 18:01:00,69.0,66.3,30.07,North,0,0.0,0.0,91,0.00,,,0.81,WUHU216DAVISVP2,2013-08-15 22:01:00,
2013-08-15 18:04:00,75.1,54.1,30.08,WSW,258,2.0,4.0,48,0.00,,,0.00,WUHU216DAVISVP2,2013-08-15 22:04:00,
2013-08-15 18:06:00,69.5,66.1,30.07,North,0,0.0,0.0,89,0.00,,,0.81,WUHU216DAVISVP2,2013-08-15 22:06:00,
2013-08-15 18:09:00,75.2,53.0,30.08,West,268,1.0,4.0,46,0.00,,,0.00,WUHU216DAVISVP2,2013-08-15 22:09:00,
2013-08-15 18:11:00,70.0,66.3,30.07,North,0,0.0,0.0,88,0.00,,,0.81,WUHU216DAVISVP2,2013-08-15 22:11:00,
2013-08-15 18:14:00,75.2,55.9,30.08,West,268,0.0,4.0,51,0.00,,,0.00,WUHU216DAVISVP2,2013-08-15 22:14:00,
2013-08-15 18:16:00,70.4,66.7,30.07,North,0,0.0,0.0,88,0.00,,,0.81,WUHU216DAVISVP2,2013-08-15 22:16:00,
2013-08-15 18:19:00,75.3,54.3,30.08,West,267,1.0,4.0,48,0.00,,,0.00,WUHU216DAVISVP2,2013-08-15 22:19:00,
2013-08-15 18:21:00,70.6,66.5,30.07,North,0,0.0,0.0,87,0.00,,,0.81,WUHU216DAVISVP2,2013-08-15 22:21:00,
2013-08-15 18:24:00,75.3,54.9,30.08,WNW,287,0.0,3.0,49,0.00,,,0.00,WUHU216DAVISVP2,2013-08-15 22:24:00,
2013-08-15 18:26:00,70.6,66.2,30.07,North,0,0.0,0.0,86,0.00,,,0.81,WUHU216DAVISVP2,2013-08-15 22:26:00,
2013-08-15 18:29:00,75.3,52.5,30.08,NW,312,2.0,3.0,45,0.00,,,0.00,WUHU216DAVISVP2,2013-08-15 22:29:00,
2013-08-15 18:31:00,70.7,66.3,30.07,North,0,0.0,0.0,86,0.00,,,0.81,WUHU216DAVISVP2,2013-08-15 22:31:00,
2013-08-15 18:34:00,74.9,56.2,30.08,NW,310,0.0,3.0,52,0.00,,,0.00,WUHU216DAVISVP2,2013-08-15 22:34:00,
2013-08-15 18:36:00,70.7,67.0,30.07,North,0,0.0,0.0,88,0.00,,,0.81,WUHU216DAVISVP2,2013-08-15 22:36:00,
2013-08-15 18:39:00,74.2,55.6,30.08,WNW,285,0.0,3.0,52,0.00,,,0.00,WUHU216DAVISVP2,2013-08-15 22:39:00,
2013-08-15 18:41:00,70.6,66.5,30.07,North,0,0.0,0.0,87,0.00,,,0.81,WUHU216DAVISVP2,2013-08-15 22:41:00,
2013-08-15 18:44:00,73.4,58.4,30.08,West,280,0.0,3.0,59,0.00,,,0.00,WUHU216DAVISVP2,2013-08-15 22:44:00,
2013-08-15 18:46:00,70.6,66.9,30.07,North,0,0.0,0.0,88,0.00,,,0.81,WUHU216DAVISVP2,2013-08-15 22:46:00,
2013-08-15 18:49:00,72.4,59.7,30.08,West,275,3.0,3.0,64,0.00,,,0.00,WUHU216DAVISVP2,2013-08-15 22:49:00,
2013-08-15 18:51:00,70.7,67.0,30.07,North,0,0.0,0.0,88,0.00,,,0.81,WUHU216DAVISVP2,2013-08-15 22:51:00,
2013-08-15 18:54:00,71.5,59.7,30.08,SW,235,0.0,3.0,66,0.00,,,0.00,WUHU216DAVISVP2,2013-08-15 22:54:00,
2013-08-15 18:56:00,70.8,67.1,30.07,North,0,0.0,0.0,88,0.00,,,0.81,WUHU216DAVISVP2,2013-08-15 22:56:00,
2013-08-15 18:59:00,70.8,59.3,30.08,WSW,237,0.0,3.0,67,0.00,,,0.00,WUHU216DAVISVP2,2013-08-15 22:59:00,
2013-08-15 19:01:00,71.1,68.0,30.07,North,0,0.0,0.0,90,0.00,,,0.81,WUHU216DAVISVP2,2013-08-15 23:01:00,
2013-08-15 19:04:00,70.3,58.8,30.08,WSW,237,0.0,3.0,67,0.00,,,0.00,WUHU216DAVISVP2,2013-08-15 23:04:00,
2013-08-15 19:06:00,71.5,67.1,30.07,North,0,0.0,0.0,86,0.00,,,0.81,WUHU216DAVISVP2,2013-08-15 23:06:00,
2013-08-15 19:09:00,69.8,59.2,30.08,WSW,237,1.0,2.0,69,0.00,,,0.00,WUHU216DAVISVP2,2013-08-15 23:09:00,
2013-08-15 19:11:00,72.1,67.3,30.07,SSW,203,3.0,7.0,85,0.00,,,0.81,WUHU216DAVISVP2,2013-08-15 23:11:00,
2013-08-15 19:14:00,69.1,59.5,30.08,WSW,239,0.0,2.0,71,0.00,,,0.00,WUHU216DAVISVP2,2013-08-15 23:14:00,
2013-08-15 19:16:00,72.6,67.5,30.06,SW,225,4.0,7.0,84,0.00,,,0.81,WUHU216DAVISVP2,2013-08-15 23:16:00,
2013-08-15 19:19:00,68.6,58.0,30.08,WSW,250,0.0,2.0,69,0.00,,,0.00,WUHU216DAVISVP2,2013-08-15 23:19:00,
2013-08-15 19:21:00,73.2,68.1,30.06,SSW,203,3.0,7.0,84,0.00,,,0.81,WUHU216DAVISVP2,2013-08-15 23:21:00,
2013-08-15 19:24:00,68.1,58.7,30.08,WSW,245,1.0,2.0,72,0.00,,,0.00,WUHU216DAVISVP2,2013-08-15 23:24:00,
2013-08-15 19:26:00,73.7,67.9,30.06,SSW,203,4.0,8.0,82,0.00,,,0.81,WUHU216DAVISVP2,2013-08-15 23:26:00,
2013-08-15 19:29:00,67.4,57.7,30.08,WSW,245,2.0,2.0,71,0.00,,,0.00,WUHU216DAVISVP2,2013-08-15 23:29:00,
2013-08-15 19:31:00,74.2,68.3,30.06,SW,225,1.0,8.0,82,0.00,,,0.81,WUHU216DAVISVP2,2013-08-15 23:31:00,
2013-08-15 19:34:00,66.8,58.4,30.08,WSW,246,0.0,2.0,74,0.00,,,0.00,WUHU216DAVISVP2,2013-08-15 23:34:00,
2013-08-15 19:36:00,74.7,68.8,30.05,SW,225,1.0,8.0,82,0.00,,,0.81,WUHU216DAVISVP2,2013-08-15 23:36:00,
2013-08-15 19:39:00,66.5,58.5,30.08,WSW,246,0.0,2.0,75,0.00,,,0.00,WUHU216DAVISVP2,2013-08-15 23:39:00,
2013-08-15 19:41:00,75.4,69.2,30.05,West,270,3.0,6.0,81,0.00,,,0.81,WUHU216DAVISVP2,2013-08-15 23:41:00,
2013-08-15 19:44:00,66.1,58.4,30.09,WSW,247,1.0,2.0,76,0.00,,,0.00,WUHU216DAVISVP2,2013-08-15 23:44:00,
2013-08-15 19:46:00,76.1,69.5,30.05,WSW,248,4.0,8.0,80,0.00,,,0.81,WUHU216DAVISVP2,2013-08-15 23:46:00,
2013-08-15 19:49:00,65.8,58.5,30.09,WSW,247,0.0,2.0,77,0.00,,,0.00,WUHU216DAVISVP2,2013-08-15 23:49:00,
2013-08-15 19:51:00,76.6,69.6,30.05,SW,225,6.0,9.0,79,0.00,,,0.81,WUHU216DAVISVP2,2013-08-15 23:51:00,
2013-08-15 19:54:00,65.4,58.1,30.09,WSW,256,2.0,3.0,77,0.00,,,0.00,WUHU216DAVISVP2,2013-08-15 23:54:00,
2013-08-15 19:56:00,77.0,69.6,30.04,WSW,248,4.0,9.0,78,0.00,,,0.81,WUHU216DAVISVP2,2013-08-15 23:56:00,
2013-08-15 20:00:00,64.8,57.9,30.09,West,263,0.0,3.0,78,0.00,,,0.00,WUHU216DAVISVP2,2013-08-16 00:00:00,
2013-08-15 20:01:00,77.3,69.5,30.04,SW,225,4.0,9.0,77,0.00,,,0.81,WUHU216DAVISVP2,2013-08-16 00:01:00,
2013-08-15 20:06:00,64.0,57.4,30.09,NW,320,0.0,3.0,79,0.00,,,0.00,WUHU216DAVISVP2,2013-08-16 00:06:00,
2013-08-15 20:11:00,63.5,57.6,30.10,WNW,295,0.0,3.0,81,0.00,,,0.00,WUHU216DAVISVP2,2013-08-16 00:11:00,
2013-08-15 20:16:00,63.1,57.2,30.10,WNW,295,0.0,3.0,81,0.00,,,0.00,WUHU216DAVISVP2,2013-08-16 00:16:00,
2013-08-15 20:21:00,62.6,57.4,30.10,WNW,295,0.0,3.0,83,0.00,,,0.00,WUHU216DAVISVP2,2013-08-16 00:21:00,
2013-08-15 20:26:00,62.3,57.1,30.10,NW,315,0.0,3.0,83,0.00,,,0.00,WUHU216DAVISVP2,2013-08-16 00:26:00,
2013-08-15 20:31:00,62.0,56.8,30.10,NW,312,1.0,3.0,83,0.00,,,0.00,WUHU216DAVISVP2,2013-08-16 00:31:00,
2013-08-15 20:36:00,61.6,56.7,30.10,NW,311,0.0,3.0,84,0.00,,,0.00,WUHU216DAVISVP2,2013-08-16 00:36:00,
2013-08-15 20:41:00,61.2,56.3,30.10,NW,310,1.0,3.0,84,0.00,,,0.00,WUHU216DAVISVP2,2013-08-16 00:41:00,
2013-08-15 20:46:00,60.8,56.3,30.10,NW,310,0.0,3.0,85,0.00,,,0.00,WUHU216DAVISVP2,2013-08-16 00:46:00,
2013-08-15 20:51:00,60.5,56.3,30.11,NW,310,0.0,2.0,86,0.00,,,0.00,WUHU216DAVISVP2,2013-08-16 00:51:00,
2013-08-15 20:56:00,60.3,56.1,30.11,NW,310,0.0,2.0,86,0.00,,,0.00,WUHU216DAVISVP2,2013-08-16 00:56:00,
2013-08-15 21:01:00,60.0,56.1,30.11,NW,312,2.0,4.0,87,0.00,,,0.00,WUHU216DAVISVP2,2013-08-16 01:01:00,
2013-08-15 21:06:00,59.8,56.2,30.11,NW,312,0.0,4.0,88,0.00,,,0.00,WUHU216DAVISVP2,2013-08-16 01:06:00,
2013-08-15 21:11:00,59.5,56.3,30.11,NW,312,0.0,4.0,89,0.00,,,0.00,WUHU216DAVISVP2,2013-08-16 01:11:00,
2013-08-15 21:16:00,59.2,56.2,30.12,NW,312,0.0,4.0,90,0.00,,,0.00,WUHU216DAVISVP2,2013-08-16 01:16:00,
2013-08-15 21:21:00,58.9,55.9,30.12,NW,312,0.0,1.0,90,0.00,,,0.00,WUHU216DAVISVP2,2013-08-16 01:21:00,
2013-08-15 21:26:00,58.7,56.0,30.12,NW,312,0.0,2.0,91,0.00,,,0.00,WUHU216DAVISVP2,2013-08-16 01:26:00,
2013-08-15 21:31:00,58.5,55.8,30.13,NW,312,0.0,2.0,91,0.00,,,0.00,WUHU216DAVISVP2,2013-08-16 01:31:00,
2013-08-15 21:36:00,80.9,69.8,30.01,SSW,203,4.0,7.0,69,0.00,,,0.81,WUHU216DAVISVP2,2013-08-16 01:36:00,
2013-08-15 21:37:00,58.4,55.7,30.13,NW,312,0.0,2.0,91,0.00,,,0.00,WUHU216DAVISVP2,2013-08-16 01:37:00,
2013-08-15 21:41:00,80.6,69.9,30.01,SW,225,6.0,9.0,70,0.00,,,0.81,WUHU216DAVISVP2,2013-08-16 01:41:00,
2013-08-15 21:42:00,58.1,55.8,30.13,NW,312,0.0,2.0,92,0.00,,,0.00,WUHU216DAVISVP2,2013-08-16 01:42:00,
2013-08-15 21:46:00,80.5,70.6,30.00,SSW,203,4.0,9.0,72,0.00,,,0.81,WUHU216DAVISVP2,2013-08-16 01:46:00,
2013-08-15 21:47:00,57.9,55.6,30.13,NW,312,0.0,0.0,92,0.00,,,0.00,WUHU216DAVISVP2,2013-08-16 01:47:00,
2013-08-15 21:51:00,80.6,70.3,30.00,WNW,293,4.0,9.0,71,0.00,,,0.81,WUHU216DAVISVP2,2013-08-16 01:51:00,
2013-08-15 21:52:00,57.7,55.4,30.13,NW,312,0.0,0.0,92,0.00,,,0.00,WUHU216DAVISVP2,2013-08-16 01:52:00,
2013-08-15 21:56:00,80.5,70.2,30.00,WNW,293,3.0,9.0,71,0.00,,,0.81,WUHU216DAVISVP2,2013-08-16 01:56:00,
2013-08-15 21:57:00,57.5,55.2,30.13,NW,312,0.0,0.0,92,0.00,,,0.00,WUHU216DAVISVP2,2013-08-16 01:57:00,
2013-08-15 22:01:00,80.7,71.2,30.00,NNW,338,3.0,9.0,73,0.00,,,0.81,WUHU216DAVISVP2,2013-08-16 02:01:00,
2013-08-15 22:02:00,57.3,55.0,30.13,NW,312,0.0,0.0,92,0.00,,,0.00,WUHU216DAVISVP2,2013-08-16 02:02:00,
2013-08-15 22:06:00,81.1,70.0,30.00,WNW,293,4.0,8.0,69,0.00,,,0.81,WUHU216DAVISVP2,2013-08-16 02:06:00,
2013-08-15 22:07:00,57.1,54.8,30.13,NW,312,0.0,0.0,92,0.00,,,0.00,WUHU216DAVISVP2,2013-08-16 02:07:00,
2013-08-15 22:11:00,81.4,69.8,30.00,WSW,248,6.0,10.0,68,0.00,,,0.81,WUHU216DAVISVP2,2013-08-16 02:11:00,
2013-08-15 22:12:00,56.9,54.9,30.13,NW,312,0.0,0.0,93,0.00,,,0.00,WUHU216DAVISVP2,2013-08-16 02:12:00,
2013-08-15 22:16:00,81.7,69.7,30.00,SW,225,6.0,10.0,67,0.00,,,0.81,WUHU216DAVISVP2,2013-08-16 02:16:00,
2013-08-15 22:17:00,56.8,54.8,30.14,NW,312,0.0,0.0,93,0.00,,,0.00,WUHU216DAVISVP2,2013-08-16 02:17:00,
2013-08-15 22:21:00,81.8,69.3,29.99,SW,225,7.0,11.0,66,0.00,,,0.81,WUHU216DAVISVP2,2013-08-16 02:21:00,
2013-08-15 22:22:00,56.6,54.6,30.13,NW,312,0.0,0.0,93,0.00,,,0.00,WUHU216DAVISVP2,2013-08-16 02:22:00,
2013-08-15 22:26:00,82.0,70.8,29.99,West,270,5.0,11.0,69,0.00,,,0.81,WUHU216DAVISVP2,2013-08-16 02:26:00,
2013-08-15 22:27:00,56.4,54.4,30.14,NW,312,0.0,0.0,93,0.00,,,0.00,WUHU216DAVISVP2,2013-08-16 02:27:00,
2013-08-15 22:31:00,82.3,69.8,29.98,WNW,293,5.0,11.0,66,0.00,,,0.81,WUHU216DAVISVP2,2013-08-16 02:31:00,
2013-08-15 22:32:00,56.2,54.2,30.14,NW,312,0.0,0.0,93,0.00,,,0.00,WUHU216DAVISVP2,2013-08-16 02:32:00,
2013-08-15 22:36:00,82.5,69.5,29.98,WNW,293,4.0,10.0,65,0.00,,,0.81,WUHU216DAVISVP2,2013-08-16 02:36:00,
2013-08-15 22:37:00,56.0,54.3,30.14,NW,312,0.0,0.0,94,0.00,,,0.00,WUHU216DAVISVP2,2013-08-16 02:37:00,
2013-08-15 22:41:00,82.7,70.2,29.98,SW,225,4.0,10.0,66,0.00,,,0.81,WUHU216DAVISVP2,2013-08-16 02:41:00,
2013-08-15 22:42:00,55.9,54.2,30.14,NW,312,0.0,0.0,94,0.00,,,0.00,WUHU216DAVISVP2,2013-08-16 02:42:00,
2013-08-15 22:46:00,82.7,70.2,29.98,WSW,248,2.0,10.0,66,0.00,,,0.81,WUHU216DAVISVP2,2013-08-16 02:46:00,
2013-08-15 22:47:00,55.7,54.0,30.14,NW,312,0.0,0.0,94,0.00,,,0.00,WUHU216DAVISVP2,2013-08-16 02:47:00,
2013-08-15 22:51:00,82.8,69.4,29.98,SW,225,8.0,13.0,64,0.00,,,0.81,WUHU216DAVISVP2,2013-08-16 02:51:00,
2013-08-15 22:52:00,55.5,53.8,30.14,NW,312,0.0,0.0,94,0.00,,,0.00,WUHU216DAVISVP2,2013-08-16 02:52:00,
2013-08-15 22:56:00,82.4,70.3,29.98,WNW,293,1.0,13.0,67,0.00,,,0.81,WUHU216DAVISVP2,2013-08-16 02:56:00,
2013-08-15 22:57:00,55.4,53.7,30.14,NW,312,0.0,0.0,94,0.00,,,0.00,WUHU216DAVISVP2,2013-08-16 02:57:00,
2013-08-15 23:01:00,82.3,70.2,29.97,SW,225,5.0,13.0,67,0.00,,,0.81,WUHU216DAVISVP2,2013-08-16 03:01:00,
2013-08-15 23:02:00,55.2,53.5,30.14,NW,312,0.0,0.0,94,0.00,,,0.00,WUHU216DAVISVP2,2013-08-16 03:02:00,
2013-08-15 23:06:00,82.4,69.9,29.97,SW,225,4.0,9.0,66,0.00,,,0.81,WUHU216DAVISVP2,2013-08-16 03:06:00,
2013-08-15 23:07:00,55.1,53.4,30.14,NW,312,0.0,0.0,94,0.00,,,0.00,WUHU216DAVISVP2,2013-08-16 03:07:00,
2013-08-15 23:11:00,82.0,68.6,29.97,SW,225,6.0,10.0,64,0.00,,,0.81,WUHU216DAVISVP2,2013-08-16 03:11:00,
2013-08-15 23:12:00,55.0,53.3,30.14,NW,312,0.0,0.0,94,0.00,,,0.00,WUHU216DAVISVP2,2013-08-16 03:12:00,
2013-08-15 23:16:00,81.7,69.2,29.97,WSW,248,3.0,11.0,66,0.00,,,0.81,WUHU216DAVISVP2,2013-08-16 03:16:00,
2013-08-15 23:17:00,54.8,53.1,30.14,NW,312,0.0,0.0,94,0.00,,,0.00,WUHU216DAVISVP2,2013-08-16 03:17:00,
2013-08-15 23:21:00,81.5,69.5,29.97,West,270,3.0,11.0,67,0.00,,,0.81,WUHU216DAVISVP2,2013-08-16 03:21:00,
2013-08-15 23:22:00,54.7,53.3,30.14,NW,312,0.0,0.0,95,0.00,,,0.00,WUHU216DAVISVP2,2013-08-16 03:22:00,
2013-08-15 23:26:00,81.5,69.9,29.97,NW,315,3.0,8.0,68,0.00,,,0.81,WUHU216DAVISVP2,2013-08-16 03:26:00,
2013-08-15 23:27:00,54.6,53.2,30.14,NW,312,0.0,0.0,95,0.00,,,0.00,WUHU216DAVISVP2,2013-08-16 03:27:00,
2013-08-15 23:31:00,81.5,69.5,29.97,West,270,4.0,7.0,67,0.00,,,0.81,WUHU216DAVISVP2,2013-08-16 03:31:00,
2013-08-15 23:32:00,54.6,53.2,30.14,NW,312,0.0,0.0,95,0.00,,,0.00,WUHU216DAVISVP2,2013-08-16 03:32:00,
2013-08-15 23:36:00,81.2,69.2,29.97,WSW,248,3.0,8.0,67,0.00,,,0.81,WUHU216DAVISVP2,2013-08-16 03:36:00,
2013-08-15 23:37:00,54.6,53.4,30.14,NW,312,0.0,0.0,96,0.00,,,0.00,WUHU216DAVISVP2,2013-08-16 03:37:00,
2013-08-15 23:41:00,80.6,68.6,29.96,WNW,293,5.0,8.0,67,0.00,,,0.81,WUHU216DAVISVP2,2013-08-16 03:41:00,
2013-08-15 23:42:00,54.6,53.5,30.14,NW,312,0.0,0.0,96,0.00,,,0.00,WUHU216DAVISVP2,2013-08-16 03:42:00,
2013-08-15 23:46:00,80.1,68.6,29.97,WNW,293,3.0,8.0,68,0.00,,,0.81,WUHU216DAVISVP2,2013-08-16 03:46:00,
2013-08-15 23:47:00,54.6,53.4,30.14,NW,312,0.0,0.0,96,0.00,,,0.00,WUHU216DAVISVP2,2013-08-16 03:47:00,
2013-08-15 23:51:00,79.7,69.0,29.97,West,270,1.0,8.0,70,0.00,,,0.81,WUHU216DAVISVP2,2013-08-16 03:51:00,
2013-08-15 23:52:00,54.7,53.5,30.14,NW,312,0.0,0.0,96,0.00,,,0.00,WUHU216DAVISVP2,2013-08-16 03:52:00,
2013-08-15 23:56:00,79.3,69.1,29.98,WSW,248,0.0,7.0,71,0.00,,,0.81,WUHU216DAVISVP2,2013-08-16 03:56:00,
2013-08-15 23:57:00,54.8,53.6,30.14,NW,312,0.0,0.0,96,0.00,,,0.00,WUHU216DAVISVP2,2013-08-16 03:57:00,